星链-11486 (STARLINK-11486)

导读

STARLINK-11486是美国太空探索技术公司SpaceX星链互联网星座的卫星,于2024年12月31日由美国发射入轨。星链星座旨在为全球提供覆盖偏远地区的低延迟宽带互联网服务,该卫星继承了星链卫星典型低轨设计,服务全球互联网接入,助力星链完成大规模星座组网部署。

基本信息
目录编号:
62467
目录名称:
STARLINK-11486
国际标识:
2024-254F
轨道中心:
EARTH
卫星名称:
星链-11486
卫星全名:
星链-11486 (STARLINK-11486)
卫星状态:
在轨 (已飞行530 天)
发射日期:
2024-12-31 UTC
国别 :
美国 (US)
星等 :
--
轨道信息
数据来源 国际轨道数据
星历时间: 2026-06-14T13:55:17+0800
12小时前
查看轨道信息
半长轴: 6734.278km
偏心率: 0.0001262
轨道倾角: 42.999°
近地点辐角 324.826°
升交点赤经 1.282°
平近点角 35.253°
近地点: 355.291km
远地点: 356.991km
周期: 91.663分钟
每日圈数: 15.70964
详细信息
固有亮度:
5
最大亮度:
2.5
卫星平台:
Starlink V1.0
覆盖范围:
全球
运营商:
太空探索技术公司
运营商所在国:
美国
制造商(研发单位):
太空探索技术公司
制造商所在国:
美国
使用方式:
暂无
卫星简介
Starlink 计划是 SpaceX 推出的全球卫星互联网项目,通过发射低轨道卫星,为全球尤其是偏远地区提供高速、低延迟的互联网服务。自 2019 年起,Starlink 已部署数千颗卫星,旨在缩小全球数字鸿沟,推动互联网普及。该项目还为军事、航空等行业提供通信支持,带来广泛经济效益。
2D轨道图
3D轨道图
轨道高度分析图
轨道倾角分析图
轨道综合分析图
查看轨道综合分析图